Year,Month,Day,Hour,Minute,Value (Times are PST for temperature in C)
2014,08,22,00,00,13.20
2014,08,22,00,01,13.10
2014,08,22,00,02,13.10
2014,08,22,00,03,13.10
2014,08,22,00,04,13.10
2014,08,22,00,05,13.10
2014,08,22,00,06,13.10
2014,08,22,00,07,13.10
2014,08,22,00,08,13.10
2014,08,22,00,09,13.10
2014,08,22,00,10,13.10
2014,08,22,00,11,13.10
2014,08,22,00,12,13.10
2014,08,22,00,13,13.10
2014,08,22,00,14,13.10
2014,08,22,00,15,13.10
2014,08,22,00,16,13.10
2014,08,22,00,17,13.10
2014,08,22,00,18,13.10
2014,08,22,00,19,13.10
2014,08,22,00,20,13.10
2014,08,22,00,21,13.10
2014,08,22,00,22,13.10
2014,08,22,00,23,13.10
2014,08,22,00,24,13.00
2014,08,22,00,25,13.00
2014,08,22,00,26,13.00
2014,08,22,00,27,12.90
2014,08,22,00,28,12.90
2014,08,22,00,29,12.90
2014,08,22,00,30,12.90
2014,08,22,00,31,12.90
2014,08,22,00,32,12.90
2014,08,22,00,33,12.90
2014,08,22,00,34,12.90
2014,08,22,00,35,12.90
2014,08,22,00,36,12.90
2014,08,22,00,37,12.90
2014,08,22,00,38,12.90
2014,08,22,00,39,12.90
2014,08,22,00,40,12.80
2014,08,22,00,41,12.80
2014,08,22,00,42,12.80
2014,08,22,00,43,12.80
2014,08,22,00,44,12.90
2014,08,22,00,45,12.90
2014,08,22,00,46,12.90
2014,08,22,00,47,12.90
2014,08,22,00,48,12.90
2014,08,22,00,49,12.90
2014,08,22,00,50,12.90
2014,08,22,00,51,12.90
2014,08,22,00,52,12.90
2014,08,22,00,53,12.90
2014,08,22,00,54,12.90
2014,08,22,00,55,12.90
2014,08,22,00,56,12.90
2014,08,22,00,57,12.90
2014,08,22,00,58,12.90
2014,08,22,00,59,12.90
2014,08,22,01,00,12.90
2014,08,22,01,01,12.90
2014,08,22,01,02,13.00
2014,08,22,01,03,13.00
2014,08,22,01,04,13.00
2014,08,22,01,05,13.00
2014,08,22,01,06,12.90
2014,08,22,01,07,12.90
2014,08,22,01,08,12.90
2014,08,22,01,09,12.90
2014,08,22,01,10,12.90
2014,08,22,01,11,12.90
2014,08,22,01,12,12.90
2014,08,22,01,13,12.90
2014,08,22,01,14,12.90
2014,08,22,01,15,12.90
2014,08,22,01,16,12.90
2014,08,22,01,17,12.90
2014,08,22,01,18,12.90
2014,08,22,01,19,12.90
2014,08,22,01,20,12.90
2014,08,22,01,21,12.90
2014,08,22,01,22,12.90
2014,08,22,01,23,12.90
2014,08,22,01,24,12.90
2014,08,22,01,25,12.90
2014,08,22,01,26,12.90
2014,08,22,01,27,12.90
2014,08,22,01,28,12.90
2014,08,22,01,29,12.90
2014,08,22,01,30,12.90
2014,08,22,01,31,12.90
2014,08,22,01,32,12.90
2014,08,22,01,33,12.80
2014,08,22,01,34,12.80
2014,08,22,01,35,12.80
2014,08,22,01,36,12.80
2014,08,22,01,37,12.80
2014,08,22,01,38,12.80
2014,08,22,01,39,12.80
2014,08,22,01,40,12.80
2014,08,22,01,41,12.70
2014,08,22,01,42,12.70
2014,08,22,01,43,12.80
2014,08,22,01,44,12.80
2014,08,22,01,45,12.80
2014,08,22,01,46,12.80
2014,08,22,01,47,12.80
2014,08,22,01,48,12.80
2014,08,22,01,49,12.80
2014,08,22,01,50,12.80
2014,08,22,01,51,12.80
2014,08,22,01,52,12.80
2014,08,22,01,53,12.90
2014,08,22,01,54,12.90
2014,08,22,01,55,12.90
2014,08,22,01,56,12.90
2014,08,22,01,57,12.90
2014,08,22,01,58,12.90
2014,08,22,01,59,12.90
2014,08,22,02,00,12.90
2014,08,22,02,01,12.90
2014,08,22,02,02,12.90
2014,08,22,02,03,12.90
2014,08,22,02,04,12.90
2014,08,22,02,05,12.90
2014,08,22,02,06,12.90
2014,08,22,02,07,12.90
2014,08,22,02,08,12.90
2014,08,22,02,09,12.90
2014,08,22,02,10,12.80
2014,08,22,02,11,12.80
2014,08,22,02,12,12.70
2014,08,22,02,13,12.70
2014,08,22,02,14,12.70
2014,08,22,02,15,12.70
2014,08,22,02,16,12.70
2014,08,22,02,17,12.60
2014,08,22,02,18,12.60
2014,08,22,02,19,12.60
2014,08,22,02,20,12.60
2014,08,22,02,21,12.60
2014,08,22,02,22,12.60
2014,08,22,02,23,12.60
2014,08,22,02,24,12.70
2014,08,22,02,25,12.70
2014,08,22,02,26,12.70
2014,08,22,02,27,12.70
2014,08,22,02,28,12.70
2014,08,22,02,29,12.70
2014,08,22,02,30,12.70
2014,08,22,02,31,12.70
2014,08,22,02,32,12.80
2014,08,22,02,33,12.80
2014,08,22,02,34,12.80
2014,08,22,02,35,12.80
2014,08,22,02,36,12.80
2014,08,22,02,37,12.80
2014,08,22,02,38,12.80
2014,08,22,02,39,12.90
2014,08,22,02,40,12.90
2014,08,22,02,41,12.90
2014,08,22,02,42,12.90
2014,08,22,02,43,12.90
2014,08,22,02,44,12.90
2014,08,22,02,45,12.90
2014,08,22,02,46,12.90
2014,08,22,02,47,12.90
2014,08,22,02,48,12.90
2014,08,22,02,49,12.90
2014,08,22,02,50,12.90
2014,08,22,02,51,12.90
2014,08,22,02,52,12.90
2014,08,22,02,53,12.90
2014,08,22,02,54,12.90
2014,08,22,02,55,12.90
2014,08,22,02,56,12.90
2014,08,22,02,57,12.90
2014,08,22,02,58,12.90
2014,08,22,02,59,12.90
2014,08,22,03,00,12.90
2014,08,22,03,01,12.90
2014,08,22,03,02,12.90
2014,08,22,03,03,12.80
2014,08,22,03,04,12.80
2014,08,22,03,05,12.80
2014,08,22,03,06,12.80
2014,08,22,03,07,12.80
2014,08,22,03,08,12.80
2014,08,22,03,09,12.80
2014,08,22,03,10,12.80
2014,08,22,03,11,12.70
2014,08,22,03,12,12.70
2014,08,22,03,13,12.70
2014,08,22,03,14,12.70
2014,08,22,03,15,12.70
2014,08,22,03,16,12.70
2014,08,22,03,17,12.60
2014,08,22,03,18,12.60
2014,08,22,03,19,12.50
2014,08,22,03,20,12.40
2014,08,22,03,21,12.40
2014,08,22,03,22,12.40
2014,08,22,03,23,12.40
2014,08,22,03,24,12.30
2014,08,22,03,25,12.30
2014,08,22,03,26,12.30
2014,08,22,03,27,12.30
2014,08,22,03,28,12.30
2014,08,22,03,29,12.30
2014,08,22,03,30,12.30
2014,08,22,03,31,12.30
2014,08,22,03,32,12.30
2014,08,22,03,33,12.30
2014,08,22,03,34,12.30
2014,08,22,03,35,12.20
2014,08,22,03,36,12.20
2014,08,22,03,37,12.20
2014,08,22,03,38,12.20
2014,08,22,03,39,12.20
2014,08,22,03,40,12.20
2014,08,22,03,41,12.20
2014,08,22,03,42,12.20
2014,08,22,03,43,12.20
2014,08,22,03,44,12.20
2014,08,22,03,45,12.20
2014,08,22,03,46,12.20
2014,08,22,03,47,12.20
2014,08,22,03,48,12.20
2014,08,22,03,49,12.20
2014,08,22,03,50,12.20
2014,08,22,03,51,12.20
2014,08,22,03,52,12.20
2014,08,22,03,53,12.20
2014,08,22,03,54,12.20
2014,08,22,03,55,12.20
2014,08,22,03,56,12.10
2014,08,22,03,57,12.10
2014,08,22,03,58,12.10
2014,08,22,03,59,12.10
2014,08,22,04,00,12.10
2014,08,22,04,01,12.10
2014,08,22,04,02,12.10
2014,08,22,04,03,12.10
2014,08,22,04,04,12.10
2014,08,22,04,05,12.10
2014,08,22,04,06,12.10
2014,08,22,04,07,12.10
2014,08,22,04,08,12.10
2014,08,22,04,09,12.10
2014,08,22,04,10,12.10
2014,08,22,04,11,12.10
2014,08,22,04,12,12.10
2014,08,22,04,13,12.00
2014,08,22,04,14,12.00
2014,08,22,04,15,12.00
2014,08,22,04,16,12.00
2014,08,22,04,17,12.00
2014,08,22,04,18,12.00
2014,08,22,04,19,12.00
2014,08,22,04,20,12.00
2014,08,22,04,21,11.90
2014,08,22,04,22,11.90
2014,08,22,04,23,11.90
2014,08,22,04,24,11.80
2014,08,22,04,25,11.80
2014,08,22,04,26,11.80
2014,08,22,04,27,11.80
2014,08,22,04,28,11.80
2014,08,22,04,29,11.80
2014,08,22,04,30,11.80
2014,08,22,04,31,11.80
2014,08,22,04,32,11.80
2014,08,22,04,33,11.80
2014,08,22,04,34,11.80
2014,08,22,04,35,11.80
2014,08,22,04,36,11.80
2014,08,22,04,37,11.80
2014,08,22,04,38,11.80
2014,08,22,04,39,11.70
2014,08,22,04,40,11.70
2014,08,22,04,41,11.70
2014,08,22,04,42,11.70
2014,08,22,04,43,11.70
2014,08,22,04,44,11.70
2014,08,22,04,45,11.60
2014,08,22,04,46,11.60
2014,08,22,04,47,11.60
2014,08,22,04,48,11.60
2014,08,22,04,49,11.60
2014,08,22,04,50,11.60
2014,08,22,04,51,11.60
2014,08,22,04,52,11.60
2014,08,22,04,53,11.60
2014,08,22,04,54,11.60
2014,08,22,04,55,11.60
2014,08,22,04,56,11.50
2014,08,22,04,57,11.50
2014,08,22,04,58,11.50
2014,08,22,04,59,11.40
2014,08,22,05,00,11.40
2014,08,22,05,01,11.40
2014,08,22,05,02,11.40
2014,08,22,05,03,11.40
2014,08,22,05,04,11.30
2014,08,22,05,05,11.30
2014,08,22,05,06,11.30
2014,08,22,05,07,11.40
2014,08,22,05,08,11.40
2014,08,22,05,09,11.40
2014,08,22,05,10,11.40
2014,08,22,05,11,11.40
2014,08,22,05,12,11.40
2014,08,22,05,13,11.40
2014,08,22,05,14,11.40
2014,08,22,05,15,11.40
2014,08,22,05,16,11.30
2014,08,22,05,17,11.40
2014,08,22,05,18,11.40
2014,08,22,05,19,11.40
2014,08,22,05,20,11.40
2014,08,22,05,21,11.40
2014,08,22,05,22,11.40
2014,08,22,05,23,11.40
2014,08,22,05,24,11.40
2014,08,22,05,25,11.40
2014,08,22,05,26,11.40
2014,08,22,05,27,11.40
2014,08,22,05,28,11.40
2014,08,22,05,29,11.50
2014,08,22,05,30,11.50
2014,08,22,05,31,11.50
2014,08,22,05,32,11.50
2014,08,22,05,33,11.60
2014,08,22,05,34,11.60
2014,08,22,05,35,11.60
2014,08,22,05,36,11.60
2014,08,22,05,37,11.70
2014,08,22,05,38,11.70
2014,08,22,05,39,11.70
2014,08,22,05,40,11.70
2014,08,22,05,41,11.70
2014,08,22,05,42,11.70
2014,08,22,05,43,11.70
2014,08,22,05,44,11.80
2014,08,22,05,45,11.80
2014,08,22,05,46,11.80
2014,08,22,05,47,11.80
2014,08,22,05,48,11.80
2014,08,22,05,49,11.80
2014,08,22,05,50,11.80
2014,08,22,05,51,11.80
2014,08,22,05,52,11.80
2014,08,22,05,53,11.80
2014,08,22,05,54,11.80
2014,08,22,05,55,11.80
2014,08,22,05,56,11.80
2014,08,22,05,57,11.80
2014,08,22,05,58,11.80
2014,08,22,05,59,11.90
2014,08,22,06,00,11.90
2014,08,22,06,01,11.90
2014,08,22,06,02,11.90
2014,08,22,06,03,12.00
2014,08,22,06,04,12.00
2014,08,22,06,05,12.00
2014,08,22,06,06,12.10
2014,08,22,06,07,12.10
2014,08,22,06,08,12.10
2014,08,22,06,09,12.10
2014,08,22,06,10,12.10
2014,08,22,06,11,12.10
2014,08,22,06,12,12.10
2014,08,22,06,13,12.10
2014,08,22,06,14,12.10
2014,08,22,06,15,12.10
2014,08,22,06,16,12.10
2014,08,22,06,17,12.10
2014,08,22,06,18,12.00
2014,08,22,06,19,12.00
2014,08,22,06,20,12.00
2014,08,22,06,21,11.90
2014,08,22,06,22,11.90
2014,08,22,06,23,11.90
2014,08,22,06,24,11.90
2014,08,22,06,25,11.80
2014,08,22,06,26,11.80
2014,08,22,06,27,11.80
2014,08,22,06,28,11.80
2014,08,22,06,29,11.80
2014,08,22,06,30,11.90
2014,08,22,06,31,11.90
2014,08,22,06,32,11.90
2014,08,22,06,33,11.90
2014,08,22,06,34,11.90
2014,08,22,06,35,12.00
2014,08,22,06,36,12.00
2014,08,22,06,37,12.10
2014,08,22,06,38,12.10
2014,08,22,06,39,12.00
2014,08,22,06,40,12.00
2014,08,22,06,41,11.90
2014,08,22,06,42,11.90
2014,08,22,06,43,11.90
2014,08,22,06,44,11.90
2014,08,22,06,45,11.90
2014,08,22,06,46,11.80
2014,08,22,06,47,11.80
2014,08,22,06,48,11.80
2014,08,22,06,49,11.70
2014,08,22,06,50,11.70
2014,08,22,06,51,11.60
2014,08,22,06,52,11.60
2014,08,22,06,53,11.50
2014,08,22,06,54,11.50
2014,08,22,06,55,11.50
2014,08,22,06,56,11.50
2014,08,22,06,57,11.50
2014,08,22,06,58,11.60
2014,08,22,06,59,11.60
2014,08,22,07,00,11.70
2014,08,22,07,01,11.70
2014,08,22,07,02,11.70
2014,08,22,07,03,11.70
2014,08,22,07,04,11.70
2014,08,22,07,05,11.70
2014,08,22,07,06,11.70
2014,08,22,07,07,11.70
2014,08,22,07,08,11.70
2014,08,22,07,09,11.70
2014,08,22,07,10,11.70
2014,08,22,07,11,11.80
2014,08,22,07,12,11.80
2014,08,22,07,13,11.80
2014,08,22,07,14,11.80
2014,08,22,07,15,11.80
2014,08,22,07,16,11.80
2014,08,22,07,17,11.90
2014,08,22,07,18,11.90
2014,08,22,07,19,11.90
2014,08,22,07,20,12.00
2014,08,22,07,21,12.10
2014,08,22,07,22,12.10
2014,08,22,07,23,12.10
2014,08,22,07,24,12.20
2014,08,22,07,25,12.20
2014,08,22,07,26,12.30
2014,08,22,07,27,12.30
2014,08,22,07,28,12.30
2014,08,22,07,29,12.30
2014,08,22,07,30,12.20
2014,08,22,07,31,12.20
2014,08,22,07,32,12.20
2014,08,22,07,33,12.20
2014,08,22,07,34,12.20
2014,08,22,07,35,12.20
2014,08,22,07,36,12.20
2014,08,22,07,37,12.30
2014,08,22,07,38,12.30
2014,08,22,07,39,12.30
2014,08,22,07,40,12.40
2014,08,22,07,41,12.50
2014,08,22,07,42,12.50
2014,08,22,07,43,12.60
2014,08,22,07,44,12.70
2014,08,22,07,45,12.80
2014,08,22,07,46,12.80
2014,08,22,07,47,12.90
2014,08,22,07,48,12.90
2014,08,22,07,49,13.00
2014,08,22,07,50,13.00
2014,08,22,07,51,13.00
2014,08,22,07,52,13.00
2014,08,22,07,53,13.10
2014,08,22,07,54,13.10
2014,08,22,07,55,13.10
2014,08,22,07,56,13.10
2014,08,22,07,57,13.20
2014,08,22,07,58,13.20
2014,08,22,07,59,13.30
2014,08,22,08,00,13.30
2014,08,22,08,01,13.30
2014,08,22,08,02,13.30
2014,08,22,08,03,13.40
2014,08,22,08,04,13.40
2014,08,22,08,05,13.50
2014,08,22,08,06,13.50
2014,08,22,08,07,13.50
2014,08,22,08,08,13.60
2014,08,22,08,09,13.60
2014,08,22,08,10,13.60
2014,08,22,08,11,13.60
2014,08,22,08,12,13.60
2014,08,22,08,13,13.70
2014,08,22,08,14,13.70
2014,08,22,08,15,13.70
2014,08,22,08,16,13.80
2014,08,22,08,17,13.80
2014,08,22,08,18,13.80
2014,08,22,08,19,13.90
2014,08,22,08,20,13.90
2014,08,22,08,21,14.00
2014,08,22,08,22,14.00
2014,08,22,08,23,14.10
2014,08,22,08,24,14.10
2014,08,22,08,25,14.10
2014,08,22,08,26,14.10
2014,08,22,08,27,14.20
2014,08,22,08,28,14.20
2014,08,22,08,29,14.20
2014,08,22,08,30,14.20
2014,08,22,08,31,14.30
2014,08,22,08,32,14.30
2014,08,22,08,33,14.30
2014,08,22,08,34,14.40
2014,08,22,08,35,14.40
2014,08,22,08,36,14.40
2014,08,22,08,37,14.40
2014,08,22,08,38,14.50
2014,08,22,08,39,14.50
2014,08,22,08,40,14.60
2014,08,22,08,41,14.60
2014,08,22,08,42,14.60
2014,08,22,08,43,14.60
2014,08,22,08,44,14.60
2014,08,22,08,45,14.70
2014,08,22,08,46,14.70
2014,08,22,08,47,14.70
2014,08,22,08,48,14.70
2014,08,22,08,49,14.70
2014,08,22,08,50,14.70
2014,08,22,08,51,14.70
2014,08,22,08,52,14.70
2014,08,22,08,53,14.70
2014,08,22,08,54,14.70
2014,08,22,08,55,14.70
2014,08,22,08,56,14.80
2014,08,22,08,57,14.80
2014,08,22,08,58,14.90
2014,08,22,08,59,14.90
2014,08,22,09,00,15.00
2014,08,22,09,01,15.10
2014,08,22,09,02,15.10
2014,08,22,09,03,15.20
2014,08,22,09,04,15.20
2014,08,22,09,05,15.30
2014,08,22,09,06,15.30
2014,08,22,09,07,15.30
2014,08,22,09,08,15.40
2014,08,22,09,09,15.40
2014,08,22,09,10,15.50
2014,08,22,09,11,15.60
2014,08,22,09,12,15.60
2014,08,22,09,13,15.70
2014,08,22,09,14,15.80
2014,08,22,09,15,15.80
2014,08,22,09,16,15.90
2014,08,22,09,17,16.00
2014,08,22,09,18,16.00
2014,08,22,09,19,16.10
2014,08,22,09,20,16.20
2014,08,22,09,21,16.20
2014,08,22,09,22,16.30
2014,08,22,09,23,16.30
2014,08,22,09,24,16.30
2014,08,22,09,25,16.30
2014,08,22,09,26,16.30
2014,08,22,09,27,16.40
2014,08,22,09,28,16.40
2014,08,22,09,29,16.40
2014,08,22,09,30,16.50
2014,08,22,09,31,16.50
2014,08,22,09,32,16.60
2014,08,22,09,33,16.60
2014,08,22,09,34,16.60
2014,08,22,09,35,16.70
2014,08,22,09,36,16.70
2014,08,22,09,37,16.70
2014,08,22,09,38,16.70
2014,08,22,09,39,16.80
2014,08,22,09,40,16.80
2014,08,22,09,41,16.80
2014,08,22,09,42,16.80
2014,08,22,09,43,16.80
2014,08,22,09,44,16.80
2014,08,22,09,45,16.80
2014,08,22,09,46,16.90
2014,08,22,09,47,17.00
2014,08,22,09,48,17.00
2014,08,22,09,49,17.10
2014,08,22,09,50,17.10
2014,08,22,09,51,17.20
2014,08,22,09,52,17.20
2014,08,22,09,53,17.30
2014,08,22,09,54,17.50
2014,08,22,09,55,17.70
2014,08,22,09,56,17.80
2014,08,22,09,57,18.00
2014,08,22,09,58,18.10
2014,08,22,09,59,18.30
2014,08,22,10,00,18.30
2014,08,22,10,01,18.40
2014,08,22,10,02,18.40
2014,08,22,10,03,18.50
2014,08,22,10,04,18.60
2014,08,22,10,05,18.60
2014,08,22,10,06,18.60
2014,08,22,10,07,18.70
2014,08,22,10,08,18.70
2014,08,22,10,09,18.80
2014,08,22,10,10,18.80
2014,08,22,10,11,18.80
2014,08,22,10,12,18.90
2014,08,22,10,13,18.90
2014,08,22,10,14,18.90
2014,08,22,10,15,18.90
2014,08,22,10,16,18.90
2014,08,22,10,17,18.90
2014,08,22,10,18,18.90
2014,08,22,10,19,18.90
2014,08,22,10,20,18.80
2014,08,22,10,21,18.80
2014,08,22,10,22,18.80
2014,08,22,10,23,18.80
2014,08,22,10,24,18.80
2014,08,22,10,25,18.80
2014,08,22,10,26,18.90
2014,08,22,10,27,18.90
2014,08,22,10,28,18.90
2014,08,22,10,29,18.90
2014,08,22,10,30,18.90
2014,08,22,10,31,18.90
2014,08,22,10,32,18.90
2014,08,22,10,33,18.90
2014,08,22,10,34,18.90
2014,08,22,10,35,18.90
2014,08,22,10,36,18.90
2014,08,22,10,37,18.90
2014,08,22,10,38,18.90
2014,08,22,10,39,18.90
2014,08,22,10,40,18.90
2014,08,22,10,41,18.80
2014,08,22,10,42,18.80
2014,08,22,10,43,18.90
2014,08,22,10,44,18.90
2014,08,22,10,45,18.90
2014,08,22,10,46,18.90
2014,08,22,10,47,18.90
2014,08,22,10,48,19.00
2014,08,22,10,49,19.00
2014,08,22,10,50,19.10
2014,08,22,10,51,19.10
2014,08,22,10,52,19.20
2014,08,22,10,53,19.30
2014,08,22,10,54,19.30
2014,08,22,10,55,19.30
2014,08,22,10,56,19.40
2014,08,22,10,57,19.50
2014,08,22,10,58,19.60
2014,08,22,10,59,19.60
2014,08,22,11,00,19.70
2014,08,22,11,01,19.70
2014,08,22,11,02,19.70
2014,08,22,11,03,19.80
2014,08,22,11,04,19.70
2014,08,22,11,05,19.60
2014,08,22,11,06,19.50
2014,08,22,11,07,19.40
2014,08,22,11,08,19.40
2014,08,22,11,09,19.50
2014,08,22,11,10,19.50
2014,08,22,11,11,19.60
2014,08,22,11,12,19.60
2014,08,22,11,13,19.70
2014,08,22,11,14,19.70
2014,08,22,11,15,19.80
2014,08,22,11,16,19.80
2014,08,22,11,17,19.80
2014,08,22,11,18,19.80
2014,08,22,11,19,19.80
2014,08,22,11,20,19.80
2014,08,22,11,21,19.90
2014,08,22,11,22,19.90
2014,08,22,11,23,19.90
2014,08,22,11,24,19.90
2014,08,22,11,25,19.90
2014,08,22,11,26,19.90
2014,08,22,11,27,19.90
2014,08,22,11,28,19.90
2014,08,22,11,29,19.90
2014,08,22,11,30,19.90
2014,08,22,11,31,19.90
2014,08,22,11,32,19.90
2014,08,22,11,33,19.90
2014,08,22,11,34,19.90
2014,08,22,11,35,19.90
2014,08,22,11,36,19.90
2014,08,22,11,37,19.90
2014,08,22,11,38,19.90
2014,08,22,11,39,20.00
2014,08,22,11,40,20.00
2014,08,22,11,41,20.00
2014,08,22,11,42,20.00
2014,08,22,11,43,20.10
2014,08,22,11,44,20.10
2014,08,22,11,45,20.20
2014,08,22,11,46,20.20
2014,08,22,11,47,20.30
2014,08,22,11,48,20.40
2014,08,22,11,49,20.50
2014,08,22,11,50,20.50
2014,08,22,11,51,20.50
2014,08,22,11,52,20.50
2014,08,22,11,53,20.40
2014,08,22,11,54,20.40
2014,08,22,11,55,20.40
2014,08,22,11,56,20.40
2014,08,22,11,57,20.30
2014,08,22,11,58,20.30
2014,08,22,11,59,20.30
2014,08,22,12,00,20.20
2014,08,22,12,01,20.20
2014,08,22,12,02,20.20
2014,08,22,12,03,20.10
2014,08,22,12,04,20.10
2014,08,22,12,05,20.10
2014,08,22,12,06,20.10
2014,08,22,12,07,20.00
2014,08,22,12,08,20.00
2014,08,22,12,09,20.00
2014,08,22,12,10,20.00
2014,08,22,12,11,20.10
2014,08,22,12,12,20.10
2014,08,22,12,13,20.20
2014,08,22,12,14,20.30
2014,08,22,12,15,20.40
2014,08,22,12,16,20.50
2014,08,22,12,17,20.60
2014,08,22,12,18,20.60
2014,08,22,12,19,20.50
2014,08,22,12,20,20.30
2014,08,22,12,21,20.00
2014,08,22,12,22,19.50
2014,08,22,12,23,19.30
2014,08,22,12,24,19.10
2014,08,22,12,25,18.90
2014,08,22,12,26,18.90
2014,08,22,12,27,18.90
2014,08,22,12,28,18.80
2014,08,22,12,29,18.80
2014,08,22,12,30,18.80
2014,08,22,12,31,18.90
2014,08,22,12,32,18.90
2014,08,22,12,33,19.00
2014,08,22,12,34,19.10
2014,08,22,12,35,19.20
2014,08,22,12,36,19.20
2014,08,22,12,37,19.10
2014,08,22,12,38,19.10
2014,08,22,12,39,19.00
2014,08,22,12,40,18.90
2014,08,22,12,41,18.90
2014,08,22,12,42,18.90
2014,08,22,12,43,18.90
2014,08,22,12,44,18.90
2014,08,22,12,45,19.00
2014,08,22,12,46,19.10
2014,08,22,12,47,19.10
2014,08,22,12,48,19.20
2014,08,22,12,49,19.20
2014,08,22,12,50,19.20
2014,08,22,12,51,19.30
2014,08,22,12,52,19.30
2014,08,22,12,53,19.30
2014,08,22,12,54,19.30
2014,08,22,12,55,19.30
2014,08,22,12,56,19.40
2014,08,22,12,57,19.50
2014,08,22,12,58,19.50
2014,08,22,12,59,19.60
2014,08,22,13,00,19.60
2014,08,22,13,01,19.60
2014,08,22,13,02,19.50
2014,08,22,13,03,19.40
2014,08,22,13,04,19.40
2014,08,22,13,05,19.40
2014,08,22,13,06,19.50
2014,08,22,13,07,19.50
2014,08,22,13,08,19.50
2014,08,22,13,09,19.50
2014,08,22,13,10,19.30
2014,08,22,13,11,19.30
2014,08,22,13,12,19.30
2014,08,22,13,13,19.30
2014,08,22,13,14,19.30
2014,08,22,13,15,19.20
2014,08,22,13,16,19.20
2014,08,22,13,17,19.20
2014,08,22,13,18,19.20
2014,08,22,13,19,19.30
2014,08,22,13,20,19.40
2014,08,22,13,21,19.50
2014,08,22,13,22,19.60
2014,08,22,13,23,19.70
2014,08,22,13,24,19.80
2014,08,22,13,25,19.80
2014,08,22,13,26,19.80
2014,08,22,13,27,19.70
2014,08,22,13,28,19.70
2014,08,22,13,29,19.60
2014,08,22,13,30,19.60
2014,08,22,13,31,19.60
2014,08,22,13,32,19.60
2014,08,22,13,33,19.60
2014,08,22,13,34,19.60
2014,08,22,13,35,19.60
2014,08,22,13,36,19.70
2014,08,22,13,37,19.70
2014,08,22,13,38,19.80
2014,08,22,13,39,19.90
2014,08,22,13,40,20.00
2014,08,22,13,41,20.00
2014,08,22,13,42,20.00
2014,08,22,13,43,20.10
2014,08,22,13,44,20.10
2014,08,22,13,45,20.10
2014,08,22,13,46,20.10
2014,08,22,13,47,20.20
2014,08,22,13,48,20.20
2014,08,22,13,49,20.20
2014,08,22,13,50,20.20
2014,08,22,13,51,20.30
2014,08,22,13,52,20.30
2014,08,22,13,53,20.20
2014,08,22,13,54,20.20
2014,08,22,13,55,20.20
2014,08,22,13,56,20.30
2014,08,22,13,57,20.30
2014,08,22,13,58,20.30
2014,08,22,13,59,20.30
2014,08,22,14,00,20.30
2014,08,22,14,01,20.20
2014,08,22,14,02,20.20
2014,08,22,14,03,20.10
2014,08,22,14,04,20.10
2014,08,22,14,05,20.10
2014,08,22,14,06,20.10
2014,08,22,14,07,20.20
2014,08,22,14,08,20.30
2014,08,22,14,09,20.30
2014,08,22,14,10,20.40
2014,08,22,14,11,20.40
2014,08,22,14,12,20.40
2014,08,22,14,13,20.40
2014,08,22,14,14,20.30
2014,08,22,14,15,20.20
2014,08,22,14,16,20.20
2014,08,22,14,17,20.20
2014,08,22,14,18,20.30
2014,08,22,14,19,20.30
2014,08,22,14,20,20.40
2014,08,22,14,21,20.40
2014,08,22,14,22,20.30
2014,08,22,14,23,20.30
2014,08,22,14,24,20.30
2014,08,22,14,25,20.30
2014,08,22,14,26,20.30
2014,08,22,14,27,20.30
2014,08,22,14,28,20.40
2014,08,22,14,29,20.40
2014,08,22,14,30,20.50
2014,08,22,14,31,20.50
2014,08,22,14,32,20.50
2014,08,22,14,33,20.40
2014,08,22,14,34,20.40
2014,08,22,14,35,20.40
2014,08,22,14,36,20.50
2014,08,22,14,37,20.60
2014,08,22,14,38,20.60
2014,08,22,14,39,20.60
2014,08,22,14,40,20.60
2014,08,22,14,41,20.50
2014,08,22,14,42,20.40
2014,08,22,14,43,20.40
2014,08,22,14,44,20.50
2014,08,22,14,45,20.50
2014,08,22,14,46,20.50
2014,08,22,14,47,20.50
2014,08,22,14,48,20.50
2014,08,22,14,49,20.50
2014,08,22,14,50,20.60
2014,08,22,14,51,20.50
2014,08,22,14,52,20.50
2014,08,22,14,53,20.40
2014,08,22,14,54,20.40
2014,08,22,14,55,20.50
2014,08,22,14,56,20.60
2014,08,22,14,57,20.70
2014,08,22,14,58,20.70
2014,08,22,14,59,20.70
2014,08,22,15,00,20.70
2014,08,22,15,01,20.60
2014,08,22,15,02,20.60
2014,08,22,15,03,20.60
2014,08,22,15,04,20.50
2014,08,22,15,05,20.60
2014,08,22,15,06,20.50
2014,08,22,15,07,20.50
2014,08,22,15,08,20.50
2014,08,22,15,09,20.60
2014,08,22,15,10,20.60
2014,08,22,15,11,20.70
2014,08,22,15,12,20.70
2014,08,22,15,13,20.80
2014,08,22,15,14,20.80
2014,08,22,15,15,20.80
2014,08,22,15,16,20.70
2014,08,22,15,17,20.70
2014,08,22,15,18,20.60
2014,08,22,15,19,20.60
2014,08,22,15,20,20.70
2014,08,22,15,21,20.70
2014,08,22,15,22,20.80
2014,08,22,15,23,20.80
2014,08,22,15,24,20.80
2014,08,22,15,25,20.80
2014,08,22,15,26,20.80
2014,08,22,15,27,20.80
2014,08,22,15,28,20.90
2014,08,22,15,29,21.10
2014,08,22,15,30,21.10
2014,08,22,15,31,21.10
2014,08,22,15,32,21.10
2014,08,22,15,33,21.10
2014,08,22,15,34,21.10
2014,08,22,15,35,21.10
2014,08,22,15,36,21.10
2014,08,22,15,37,21.10
2014,08,22,15,38,21.10
2014,08,22,15,39,21.10
2014,08,22,15,40,21.10
2014,08,22,15,41,21.10
2014,08,22,15,42,21.10
2014,08,22,15,43,21.00
2014,08,22,15,44,21.00
2014,08,22,15,45,21.00
2014,08,22,15,46,21.00
2014,08,22,15,47,21.00
2014,08,22,15,48,20.90
2014,08,22,15,49,20.90
2014,08,22,15,50,20.80
2014,08,22,15,51,20.80
2014,08,22,15,52,20.90
2014,08,22,15,53,21.00
2014,08,22,15,54,21.10
2014,08,22,15,55,21.10
2014,08,22,15,56,21.10
2014,08,22,15,57,21.00
2014,08,22,15,58,20.90
2014,08,22,15,59,20.80
2014,08,22,16,00,20.70
2014,08,22,16,01,20.70
2014,08,22,16,02,20.70
2014,08,22,16,03,20.70
2014,08,22,16,04,20.80
2014,08,22,16,05,20.80
2014,08,22,16,06,20.80
2014,08,22,16,07,20.70
2014,08,22,16,08,20.80
2014,08,22,16,09,20.80
2014,08,22,16,10,20.80
2014,08,22,16,11,20.80
2014,08,22,16,12,20.80
2014,08,22,16,13,20.80
2014,08,22,16,14,20.80
2014,08,22,16,15,20.80
2014,08,22,16,16,20.80
2014,08,22,16,17,20.80
2014,08,22,16,18,20.80
2014,08,22,16,19,20.80
2014,08,22,16,20,20.80
2014,08,22,16,21,20.80
2014,08,22,16,22,20.80
2014,08,22,16,23,20.80
2014,08,22,16,24,20.90
2014,08,22,16,25,20.90
2014,08,22,16,26,20.90
2014,08,22,16,27,20.90
2014,08,22,16,28,20.90
2014,08,22,16,29,21.00
2014,08,22,16,30,21.10
2014,08,22,16,31,21.20
2014,08,22,16,32,21.30
2014,08,22,16,33,21.20
2014,08,22,16,34,21.10
2014,08,22,16,35,21.00
2014,08,22,16,36,21.00
2014,08,22,16,37,20.90
2014,08,22,16,38,20.80
2014,08,22,16,39,20.80
2014,08,22,16,40,20.80
2014,08,22,16,41,20.80
2014,08,22,16,42,20.80
2014,08,22,16,43,20.70
2014,08,22,16,44,20.80
2014,08,22,16,45,20.70
2014,08,22,16,46,20.70
2014,08,22,16,47,20.60
2014,08,22,16,48,20.60
2014,08,22,16,49,20.60
2014,08,22,16,50,20.60
2014,08,22,16,51,20.60
2014,08,22,16,52,20.60
2014,08,22,16,53,20.60
2014,08,22,16,54,20.60
2014,08,22,16,55,20.70
2014,08,22,16,56,20.70
2014,08,22,16,57,20.70
2014,08,22,16,58,20.70
2014,08,22,16,59,20.80
2014,08,22,17,00,20.90
2014,08,22,17,01,21.00
2014,08,22,17,02,21.00
2014,08,22,17,03,21.10
2014,08,22,17,04,21.20
2014,08,22,17,05,21.30
2014,08,22,17,06,21.30
2014,08,22,17,07,21.40
2014,08,22,17,08,21.50
2014,08,22,17,09,21.60
2014,08,22,17,10,21.60
2014,08,22,17,11,21.70
2014,08,22,17,12,21.80
2014,08,22,17,13,21.90
2014,08,22,17,14,21.90
2014,08,22,17,15,22.00
2014,08,22,17,16,22.10
2014,08,22,17,17,22.20
2014,08,22,17,18,22.30
2014,08,22,17,19,22.30